Hastings Natural History Reservation, California Weather observations

Data are for 10 minute period ending at time listed.
 Day   Time   Solar   Ave.   Ave.  Ave.  Vector  Max.   Baro.   Total    
  of    of     Rad.   Air    Rel.  Wind   Wind   Wind  Press.  Precip.   
Year   Day            Temp.  Hum.  Speed  Dir.   Gust                    
2014   (PST)  Kw/m2    F      %     mph   deg.    mph    mb.     in.     
-------------------------------------------------------------------------
 297   12:40   0.16   72.7    35    5.0   248     9.5   950.4    0.00 
 297   12:50   0.56   73.0    36    4.1   256     9.7   950.3    0.00 
 297   13:00   0.52   72.9    37    4.3   250     7.7   950.2    0.00 
 297   13:10   0.54   73.8    38    4.4   246     8.1   950.1    0.00 
 297   13:20   0.58   74.4    39    3.8   252     9.6   949.9    0.00 
 297   13:30   0.49   74.4    40    3.3   258     8.1   949.8    0.00 
 297   13:40   0.36   74.7    40    3.6   250     8.4   949.7    0.00 
 297   13:50   0.56   74.8    41    3.8   243     8.6   949.6    0.00 
 297   14:00   0.53   75.3    42    3.7   253     7.6   949.5    0.00 
 297   14:10   0.54   76.4    41    3.3   246    10.4   949.4    0.00 
 297   14:20   0.57   76.7    40    2.6   311     9.7   949.4    0.00 
 297   14:30   0.51   77.6    40    3.8   261     8.6   949.4    0.00 
 297   14:40   0.51   77.3    40    2.7   256     7.7   949.5    0.00 
 297   14:50   0.52   77.3    40    4.4   251    12.1   949.5    0.00 
 297   15:00   0.48   77.3    41    4.4   251    10.6   949.5    0.00 
 297   15:10   0.43   77.1    42    3.4   256     8.3   949.6    0.00 
 297   15:20   0.42   76.6    43    3.0   274     7.5   949.6    0.00 
 297   15:30   0.39   75.5    44    3.8   256    10.4   949.6    0.00 
 297   15:40   0.41   75.1    45    3.3   250    10.1   949.6    0.00 
 297   15:50   0.41   75.0    46    4.7   246     9.8   949.6    0.00 
 297   16:00   0.38   73.8    48    4.1   247    10.0   949.6    0.00 
 297   16:10   0.35   74.5    47    3.2   258     7.2   949.6    0.00 
 297   16:20   0.33   74.1    47    3.1   250     7.9   949.6    0.00 
 297   16:30   0.34   72.7    50    4.4   244     8.0   949.7    0.00 
 297   16:40   0.30   72.5    50    3.4   250     9.3   949.6    0.00 
 297   16:50   0.28   72.2    51    3.3   250     8.2   949.5    0.00 
 297   17:00   0.24   71.3    52    4.4   243     9.3   949.4    0.00 
 297   17:10   0.20   70.2    54    4.3   238     6.9   949.3    0.00 
 297   17:20   0.15   70.0    54    2.6   244     5.7   949.2    0.00 
 297   17:30   0.13   69.3    55    2.6   241     5.8   949.2    0.00 
 297   17:40   0.06   68.2    57    2.6   225     4.5   949.1    0.00 
 297   17:50   0.06   66.7    60    1.6   210     3.4   949.2    0.00 
 297   18:00   0.05   66.1    61    1.3   218     2.9   949.2    0.00 
 297   18:10   0.01   64.3    65    1.5   216     3.3   949.3    0.00 
 297   18:20   0.00   62.9    68    1.2   225     3.2   949.3    0.00 
 297   18:30   0.00   61.6    70    0.6   234     2.1   949.5    0.00 
 297   18:40   0.00   60.3    72    0.4   246     2.9   949.8    0.00 
 297   18:50   0.00   59.1    76    0.8   193     1.9   950.0    0.00 
 297   19:00   0.00   58.1    78    0.2   141     1.1   950.1    0.00 
 297   19:10   0.00   57.0    79    0.6    45     1.4   950.3    0.00 
 297   19:20   0.00   55.9    82    0.6    68     1.8   950.2    0.00 
 297   19:30   0.00   55.2    82    0.7    43     1.8   950.3    0.00 
 297   19:40   0.00   54.3    82    1.0    54     2.7   950.4    0.00 
 297   19:50   0.00   53.7    83    0.6    60     2.1   950.4    0.00 
 297   20:00   0.00   52.9    83    0.6    48     2.0   950.5    0.00 
 297   20:10   0.00   52.3    85    0.6   209     1.7   950.6    0.00 
 297   20:20   0.00   52.9    86    0.7   192     2.5   950.8    0.00 
 297   20:30   0.00   52.3    86    0.6    60     1.8   950.9    0.00 
 297   20:40   0.00   51.4    85    1.2    43     2.5   951.0    0.00 
 297   20:50   0.00   50.4    84    0.2    68     1.5   951.0    0.00 
 297   21:00   0.00   50.7    88    0.4   172     1.5   951.2    0.00 
 297   21:10   0.00   51.8    90    0.5    55     1.8   951.3    0.00 
 297   21:20   0.00   50.4    81    1.5    45     2.1   951.5    0.00 
 297   21:30   0.00   50.0    79    1.6    53     2.7   951.5    0.00 
 297   21:40   0.00   50.1    83    1.9    58     2.9   951.4    0.00 
 297   21:50   0.00   50.4    89    0.9    92     2.6   951.3    0.00 
 297   22:00   0.00   49.1    85    1.0    55     1.6   951.5    0.00 
 297   22:10   0.00   49.1    89    0.7    74     1.8   951.3    0.00 
 297   22:20   0.00   49.9    90    1.0   244     2.9   951.3    0.00 
 297   22:30   0.00   50.1    89    1.3   158     2.6   951.7    0.00 
 297   22:40   0.00   49.6    84    0.8   226     2.5   951.7    0.00 
 297   22:50   0.00   48.9    86    0.9    79     2.2   951.6    0.00 
 297   23:00   0.00   48.4    86    1.4    66     3.5   951.4    0.00 
 297   23:10   0.00   51.9    72    1.7    33     6.1   951.3    0.00 
 297   23:20   0.00   52.7    70    1.0    58     3.3   951.3    0.00 
 297   23:30   0.00   54.6    64    1.5    70     2.9   951.5    0.00 
 297   23:40   0.00   54.1    66    1.8   256     3.9   951.8    0.00 
 297   23:50   0.00   53.7    74    2.7   242     6.3   952.1    0.00 
 298    0:00   0.00   53.0    78    1.0   211     3.7   952.1    0.00 
 298    0:10   0.00   52.0    81    0.9    62     2.9   952.5    0.00 
 298    0:20   0.00   51.0    82    1.4    53     2.7   952.5    0.00 
 298    0:30   0.00   50.3    82    0.4   212     1.4   952.5    0.00 
 298    0:40   0.00   49.5    84    1.1    90     2.6   952.3    0.00 
 298    0:50   0.00   49.2    84    1.2    58     2.8   952.3    0.00 
 298    1:00   0.00   49.1    83    1.0    52     3.1   952.4    0.00 
 298    1:10   0.00   49.0    83    1.8    58     4.1   952.4    0.00 
 298    1:20   0.00   49.4    84    1.7    88     5.9   952.1    0.00 
 298    1:30   0.00   50.2    84    2.0   189     4.7   952.1    0.00 
 298    1:40   0.00   50.0    84    2.0   112     3.7   952.2    0.00 
 298    1:50   0.00   49.5    83    1.1   102     3.9   952.3    0.00 
 298    2:00   0.00   49.0    82    0.9    59     3.9   952.3    0.00 
 298    2:10   0.00   48.7    83    1.6    70     3.3   952.3    0.00 
 298    2:20   0.00   48.5    82    1.2   354     2.3   952.5    0.00 
 298    2:30   0.00   48.4    82    1.0    89     3.4   952.5    0.00 
 298    2:40   0.00   48.8    81    1.6    99     4.4   952.3    0.00 
 298    2:50   0.00   48.9    82    0.8   244     3.3   952.3    0.00 
 298    3:00   0.00   48.9    83    1.8   106     3.5   952.2    0.00 
 298    3:10   0.00   49.0    82    1.1    50     3.0   952.1    0.00 
 298    3:20   0.00   48.9    81    1.1    72     2.8   952.0    0.00 
 298    3:30   0.00   48.6    81    0.6   250     2.1   952.0    0.00 
 298    3:40   0.00   48.7    82    1.5    55     3.7   952.0    0.00 
 298    3:50   0.00   49.1    82    1.1   129     3.0   951.9    0.00 
 298    4:00   0.00   49.4    81    1.6    49     3.6   951.7    0.00 
 298    4:10   0.00   49.4    81    1.1    72     3.0   951.7    0.00 
 298    4:20   0.00   49.3    82    1.8    44     3.8   951.7    0.00 
 298    4:30   0.00   49.1    83    1.3    77     2.3   951.9    0.00 
 298    4:40   0.00   49.0    82    2.0    59     3.9   951.9    0.00 
 298    4:50   0.00   49.2    81    1.1   183     3.4   951.9    0.00 
 298    5:00   0.00   49.8    80    2.7    64     5.0   951.9    0.00 
 298    5:10   0.00   52.1    80    1.9    91     6.0   951.6    0.00 
 298    5:20   0.00   53.0    77    0.8    58     4.2   951.8    0.00 
 298    5:30   0.00   52.6    77    0.6    56     1.6   952.0    0.00 
 298    5:40   0.00   52.3    77    0.6    68     2.6   952.2    0.00 
 298    5:50   0.00   52.1    77    1.2    49     3.9   952.2    0.00 
 298    6:00   0.00   52.1    77    1.4    67     3.0   952.4    0.00 
 298    6:10   0.00   52.4    79    1.5    70     4.5   952.3    0.00 
 298    6:20   0.00   53.6    78    3.8    59     5.9   952.0    0.00 
 298    6:30   0.00   55.8    72    1.2    97     3.3   952.0    0.00 
 298    6:40   0.00   54.2    75    0.7    70     1.8   952.3    0.00 
 298    6:50   0.00   53.0    78    1.7    50     4.3   952.2    0.00 
 298    7:00   0.00   52.7    79    0.2    59     0.9   952.3    0.00 
 298    7:10   0.00   52.9    80    1.2    60     3.1   952.4    0.00 
 298    7:20   0.00   54.0    79    0.9    43     2.3   952.5    0.00 
 298    7:30   0.00   55.3    78    0.9     4     3.0   952.5    0.00 
 298    7:40   0.00   56.5    79    0.7   309     3.7   952.6    0.00 
 298    7:50   0.00   57.7    80    1.2   289     3.7   952.7    0.00 
 298    8:00   0.03   58.3    80    2.0   259     5.1   952.8    0.00 
 298    8:10   0.05   58.4    81    2.0   263     4.2   953.0    0.00 
 298    8:20   0.05   58.8    81    1.5   265     4.0   953.0    0.00 
 298    8:30   0.05   58.8    82    3.0   257     6.1   953.1    0.00 
 298    8:40   0.05   58.7    83    2.6   249     5.8   953.4    0.00 
 298    8:50   0.05   58.4    85    2.2   248     4.2   953.5    0.00 
 298    9:00   0.06   58.0    88    2.7   250     4.5   953.7    0.00 
 298    9:10   0.07   57.8    92    1.0   254     3.5   954.1    0.00 
 298    9:20   0.07   58.0    92    0.3   282     1.7   954.4    0.01 
 298    9:30   0.07   58.0    93    0.8   252     3.0   954.6    0.02 
 298    9:40   0.04   57.4    95    1.4   251     4.5   954.8    0.02 
 298    9:50   0.07   56.7    97    1.2   259     4.8   954.8    0.01 
 298   10:00   0.12   57.0    98    1.7   238     4.7   954.9    0.01 
 298   10:10   0.10   57.2    98    2.8   240     5.7   955.1    0.01 
 298   10:20   0.13   57.3    99    2.0   244     5.1   955.2    0.00 
 298   10:30   0.17   57.4    98    1.6   248     5.0   955.2    0.00 
 298   10:40   0.13   57.9    98    1.6   254     4.7   955.3    0.00 
 298   10:50   0.13   57.8    97    1.7   240     3.9   955.4    0.01 
 298   11:00   0.19   58.2    97    1.9   251     5.6   955.5    0.00 
 298   11:10   0.19   58.3    96    1.4   279     3.9   955.6    0.00 
 298   11:20   0.10   58.1    96    2.2   265     5.3   955.7    0.01 
 298   11:30   0.19   58.0    96    1.8   293     4.5   955.7    0.01 
 298   11:40   0.15   58.1    96    1.2   279     4.4   955.9    0.01 
 298   11:50   0.18   58.1    95    1.9   359     5.9   955.9    0.01 
 298   12:00   0.18   58.2    94    1.6    33     3.9   955.8    0.00 
 298   12:10   0.13   58.4    91    1.6   218     4.4   955.8    0.00 
 298   12:20   0.20   59.0    89    2.0   222     4.4   955.9    0.00 
 298   12:30   0.24   59.5    89    1.3   231     4.2   956.0    0.00 

Return to Hastings Natural History Reservation graphs page.


Western Regional Climate Center,wrcc@dri.edu